FW9633 Weather Reports


time (UTC)temp
C
wind
direction
speed
KPH
gust
KPH
rain 1hr
cm
rain 24hr
cm
rain mn
cm
humidity
%
barometer
mb
20260507213248 13 258 1.6 8.0 0.00 0.00 0.00 53 1011.0
20260507212744 12 221 3.2 8.0 0.00 0.00 0.00 49 1010.8
20260507212241 11 14 0.0 6.4 0.00 0.00 0.00 54 1011.0
20260507211737 12 145 0.0 16.1 0.00 0.00 0.00 54 1010.8
20260507211234 12 226 6.4 12.9 0.00 0.00 0.00 50 1011.0
20260507210731 13 257 3.2 11.3 0.00 0.00 0.00 52 1011.0
20260507210228 12 225 0.0 9.7 0.00 0.00 0.00 53 1011.1
20260507205724 11 90 0.0 8.0 0.00 0.00 0.00 55 1011.1
20260507205221 11 14 6.4 8.0 0.00 0.00 0.00 53 1010.8
20260507204717 11 22 4.8 9.7 0.00 0.00 0.00 54 1010.8
20260507204215 11 283 3.2 8.0 0.00 0.00 0.00 52 1010.8
20260507203713 12 270 0.0 11.3 0.00 0.00 0.00 51 1011.0
20260507203210 12 193 11.3 17.7 0.00 0.00 0.00 47 1010.9
20260507202706 13 352 0.0 17.7 0.00 0.00 0.00 52 1010.7
20260507202202 13 36 3.2 8.0 0.00 0.00 0.00 50 1010.8
20260507201657 12 296 8.0 11.3 0.00 0.00 0.00 50 1010.9
20260507201154 13 293 3.2 8.0 0.00 0.00 0.00 49 1011.1
20260507200650 13 345 3.2 11.3 0.00 0.00 0.00 55 1010.8
20260507200146 13 357 8.0 11.3 0.00 0.00 0.00 53 1011.1
20260507195643 13 42 4.8 14.5 0.00 0.00 0.00 55 1011.0
20260507195140 12 4 3.2 4.8 0.00 0.00 0.00 54 1011.2
20260507194637 12 53 3.2 6.4 0.00 0.00 0.00 54 1011.2
20260507194132 12 117 3.2 4.8 0.00 0.00 0.00 53 1011.1
20260507193630 12 58 6.4 9.7 0.00 0.00 0.00 53 1010.8
20260507193127 12 3 4.8 8.0 0.00 0.00 0.00 52 1011.3
20260507192623 11 71 1.6 11.3 0.00 0.00 0.00 55 1011.2
20260507192120 11 66 3.2 4.8 0.00 0.00 0.00 55 1011.2
20260507191615 12 286 0.0 6.4 0.00 0.00 0.00 53 1011.1
20260507191112 12 338 4.8 12.9 0.00 0.00 0.00 56 1011.3
20260507190610 11 49 6.4 9.7 0.00 0.00 0.00 54 1011.4
20260507190109 12 249 1.6 11.3 0.00 0.00 0.00 54 1011.3
20260507185607 12 353 3.2 8.0 0.00 0.00 0.00 51 1011.1
20260507185103 13 13 4.8 6.4 0.00 0.00 0.00 46 1011.1
20260507184601 15 6 4.8 9.7 0.00 0.00 0.00 51 1011.0
20260507184059 13 262 9.7 9.7 0.00 0.00 0.00 45 1011.3
20260507183555 12 11 6.4 8.0 0.00 0.00 0.00 50 1011.3
20260507183052 12 106 3.2 3.2 0.00 0.00 0.00 52 1011.4
20260507182548 12 4 3.2 4.8 0.00 0.00 0.00 50 1011.4
20260507182044 12 99 0.0 9.7 0.00 0.00 0.00 51 1011.3
20260507181541 13 278 8.0 9.7 0.00 0.00 0.00 46 1011.5
20260507181037 13 304 0.0 4.8 0.00 0.00 0.00 51 1011.3
20260507180534 12 34 3.2 4.8 0.00 0.00 0.00 50 1011.4
20260507180031 12 126 1.6 6.4 0.00 0.00 0.00 53 1011.7
20260507175526 11 274 0.0 14.5 0.00 0.00 0.00 49 1011.8
20260507175025 12 161 3.2 8.0 0.00 0.00 0.00 49 1011.7
20260507174521 12 0 6.4 11.3 0.00 0.00 0.00 51 1011.8
20260507174019 12 35 0.0 6.4 0.00 0.00 0.00 49 1011.9
20260507173516 12 239 3.2 9.7 0.00 0.00 0.00 50 1011.8
20260507173013 12 194 6.4 6.4 0.00 0.00 0.00 49 1012.0
20260507172509 12 246 6.4 11.3 0.00 0.00 0.00 48 1011.8
20260507172006 12 322 0.0 6.4 0.00 0.00 0.00 49 1011.9
20260507171501 12 221 3.2 11.3 0.00 0.00 0.00 47 1011.7
20260507171000 12 254 4.8 8.0 0.00 0.00 0.00 51 1012.2
20260507170455 12 243 0.0 19.3 0.00 0.00 0.00 47 1012.1
20260507165952 12 276 9.7 24.1 0.00 0.00 0.00 46 1012.1
20260507165448 12 231 8.0 17.7 0.00 0.00 0.00 46 1012.0
20260507164944 12 150 8.0 9.7 0.00 0.00 0.00 47 1012.1
20260507164441 12 337 8.0 14.5 0.00 0.00 0.00 47 1012.3
20260507163938 12 265 3.2 9.7 0.00 0.00 0.00 49 1012.4
20260507163435 11 180 0.0 11.3 0.00 0.00 0.00 49 1012.2
20260507162932 11 212 9.7 19.3 0.00 0.00 0.00 48 1012.4
20260507162427 11 279 0.0 19.3 0.00 0.00 0.00 50 1012.4
20260507161925 13 270 4.8 6.4 0.00 0.00 0.00 47 1012.5
20260507161421 12 255 14.5 17.7 0.00 0.00 0.00 49 1012.4
20260507160918 12 309 4.8 22.5 0.00 0.00 0.00 49 1012.3
20260507160414 12 254 6.4 9.7 0.00 0.00 0.00 48 1012.9
20260507155910 12 157 3.2 11.3 0.00 0.00 0.00 51 1012.7
20260507155406 11 242 11.3 20.9 0.00 0.00 0.00 48 1012.8
20260507154903 11 228 6.4 9.7 0.00 0.00 0.00 51 1012.8
20260507154400 11 270 3.2 8.0 0.00 0.00 0.00 50 1012.6
20260507153857 10 249 12.9 17.7 0.00 0.00 0.00 50 1012.8
20260507153353 10 231 3.2 9.7 0.00 0.00 0.00 54 1012.8
20260507152850 10 303 4.8 17.7 0.00 0.00 0.00 53 1012.7
20260507152346 11 285 0.0 9.7 0.00 0.00 0.00 51 1013.0
20260507151842 11 243 8.0 17.7 0.00 0.00 0.00 52 1013.0
20260507151338 12 222 8.0 11.3 0.00 0.00 0.00 54 1012.8
20260507150836 10 353 3.2 4.8 0.00 0.00 0.00 54 1012.9
20260507150333 11 258 6.4 9.7 0.00 0.00 0.00 55 1012.9
20260507145828 10 254 3.2 11.3 0.00 0.00 0.00 52 1012.9
20260507145325 12 227 4.8 11.3 0.00 0.00 0.00 53 1013.1
20260507144823 10 180 4.8 24.1 0.00 0.00 0.00 54 1013.2
20260507144320 11 205 4.8 16.1 0.00 0.00 0.00 53 1013.2
20260507143816 11 312 3.2 8.0 0.00 0.00 0.00 59 1013.2
20260507143313 10 210 4.8 12.9 0.00 0.00 0.00 54 1013.4
20260507142809 11 252 8.0 11.3 0.00 0.00 0.00 57 1013.3
20260507142307 11 252 3.2 9.7 0.00 0.00 0.00 61 1013.4
20260507141803 10 239 3.2 11.3 0.00 0.00 0.00 59 1013.4
20260507141300 10 180 3.2 11.3 0.00 0.00 0.00 58 1013.3
20260507140755 11 97 4.8 6.4 0.00 0.00 0.00 61 1013.3
20260507140253 10 227 4.8 11.3 0.00 0.00 0.00 61 1013.3
20260507135750 10 277 4.8 9.7 0.00 0.00 0.00 62 1013.8
20260507135247 11 6 4.8 9.7 0.00 0.00 0.00 63 1013.5
20260507134743 10 217 6.4 8.0 0.00 0.00 0.00 63 1013.7
20260507134240 10 117 8.0 8.0 0.00 0.00 0.00 63 1013.7
20260507133736 9 225 4.8 11.3 0.00 0.00 0.00 66 1013.5
20260507133233 9 23 1.6 11.3 0.00 0.00 0.00 69 1014.0
20260507132730 8 231 4.8 11.3 0.00 0.00 0.00 68 1013.9
20260507132227 8 337 4.8 9.7 0.00 0.00 0.00 68 1013.8
20260507131724 8 289 1.6 12.9 0.00 0.00 0.00 67 1013.7
20260507131221 8 297 3.2 4.8 0.00 0.00 0.00 69 1013.7
20260507130718 7 219 8.0 8.0 0.00 0.00 0.00 70 1013.5
20260507130216 7 275 4.8 16.1 0.00 0.00 0.00 70 1013.7
20260507125714 7 206 4.8 16.1 0.00 0.00 0.00 70 1013.5
20260507125211 7 235 6.4 12.9 0.00 0.00 0.00 71 1013.4
20260507124707 7 135 3.2 8.0 0.00 0.00 0.00 71 1013.7
20260507124204 7 272 6.4 11.3 0.00 0.00 0.00 71 1013.7
20260507123553 7 217 3.2 14.5 0.00 0.00 0.00 70 1013.8
20260507123050 7 217 3.2 14.5 0.00 0.00 0.00 70 1013.8
20260507122545 7 217 3.2 14.5 0.00 0.00 0.00 70 1013.8
20260507122041 7 163 3.2 6.4 0.00 0.00 0.00 70 1013.7
20260507121537 7 153 4.8 8.0 0.00 0.00 0.00 72 1013.5
20260507121033 7 143 3.2 4.8 0.00 0.00 0.00 73 1013.7
20260507120529 6 182 6.4 11.3 0.00 0.00 0.00 72 1013.8
20260507120026 6 165 3.2 4.8 0.00 0.00 0.00 74 1013.5
20260507115522 6 180 1.6 4.8 0.00 0.00 0.00 76 1013.4
20260507115018 5 139 3.2 4.8 0.00 0.00 0.00 76 1013.7
20260507114514 5 180 0.0 3.2 0.00 0.00 0.00 78 1013.5
20260507114012 5 149 3.2 4.8 0.00 0.00 0.00 80 1013.5
20260507113509 4 165 4.8 4.8 0.00 0.00 0.00 81 1013.8
20260507113006 3 114 0.0 4.8 0.00 0.00 0.00 83 1013.8
20260507112503 3 170 0.0 3.2 0.00 0.00 0.00 85 1013.8
20260507112000 3 160 1.6 4.8 0.00 0.00 0.00 87 1013.7
20260507111459 2 169 3.2 4.8 0.00 0.00 0.00 90 1013.5
20260507110953 2 175 0.0 3.2 0.00 0.00 0.00 92 1013.7
20260507110450 1 209 1.6 4.8 0.00 0.00 0.00 94 1013.4
20260507105946 1 160 1.6 3.2 0.00 0.00 0.00 95 1013.5
20260507105443 1 131 1.6 3.2 0.00 0.00 0.00 96 1013.4
20260507104940 1 152 0.0 3.2 0.00 0.00 0.00 97 1013.4
20260507104437 0 166 0.0 3.2 0.00 0.00 0.00 97 1013.1
20260507103933 0 157 0.0 1.6 0.00 0.00 0.00 97 1013.3
20260507103430 0 131 0.0 3.2 0.00 0.00 0.00 97 1013.1
20260507102926 0 120 1.6 3.2 0.00 0.00 0.00 97 1013.2
20260507102423 0 126 0.0 3.2 0.00 0.00 0.00 96 1013.1
20260507101919 0 126 1.6 3.2 0.00 0.00 0.00 96 1013.1
20260507101414 0 145 0.0 1.6 0.00 0.00 0.00 96 1013.3
20260507100911 0 145 0.0 3.2 0.00 0.00 0.00 96 1013.2
20260507100409 0 180 0.0 0.0 0.00 0.00 0.00 96 1013.1
20260507095907 0 180 0.0 1.6 0.00 0.00 0.00 96 1013.2
20260507095403 0 109 0.0 4.8 0.00 0.00 0.00 96 1013.1
20260507094901 0 112 3.2 3.2 0.00 0.00 0.00 95 1013.0
20260507094357 0 105 0.0 3.2 0.00 0.00 0.00 95 1013.2
20260507093854 0 166 1.6 3.2 0.00 0.00 0.00 95 1013.1
20260507093352 0 180 0.0 0.0 0.00 0.00 0.00 95 1013.4
20260507092850 0 174 0.0 1.6 0.00 0.00 0.00 95 1013.1
20260507092346 0 117 3.2 3.2 0.00 0.00 0.00 94 1013.0
20260507091843 0 169 1.6 3.2 0.00 0.00 0.00 94 1013.2
20260507091339 1 180 0.0 3.2 0.00 0.00 0.00 94 1013.3
20260507090835 1 180 1.6 1.6 0.00 0.00 0.00 95 1013.3
20260507090331 1 157 0.0 3.2 0.00 0.00 0.00 95 1013.1
20260507085828 0 154 1.6 3.2 0.00 0.00 0.00 95 1013.2
20260507085325 0 168 1.6 3.2 0.00 0.00 0.00 95 1013.3
20260507084823 1 173 0.0 3.2 0.00 0.00 0.00 94 1013.5
20260507084319 1 186 1.6 3.2 0.00 0.00 0.00 95 1013.5
20260507083816 1 165 0.0 3.2 0.00 0.00 0.00 94 1013.2
20260507083313 1 162 1.6 3.2 0.00 0.00 0.00 94 1013.1
20260507082809 1 157 0.0 1.6 0.00 0.00 0.00 94 1013.4
20260507082306 1 156 3.2 3.2 0.00 0.00 0.00 94 1013.4
20260507081802 1 162 1.6 1.6 0.00 0.00 0.00 94 1013.5
20260507081257 1 186 0.0 3.2 0.00 0.00 0.00 93 1013.7
20260507080755 1 161 0.0 0.0 0.00 0.00 0.00 93 1013.5
20260507080251 1 161 0.0 0.0 0.00 0.00 0.00 93 1013.7
20260507075746 1 161 0.0 3.2 0.00 0.00 0.00 92 1013.5
20260507075242 1 157 0.0 3.2 0.00 0.00 0.00 92 1013.3
20260507074739 1 195 0.0 3.2 0.00 0.00 0.00 91 1013.8
20260507074237 1 209 0.0 3.2 0.00 0.00 0.00 92 1013.5
20260507073733 1 151 0.0 0.0 0.00 0.00 0.00 92 1013.4
20260507073230 1 151 0.0 1.6 0.00 0.00 0.00 92 1013.5
20260507072728 1 114 1.6 3.2 0.00 0.00 0.00 91 1013.2
20260507072225 1 165 0.0 1.6 0.00 0.00 0.00 90 1013.5
20260507071723 1 114 0.0 0.0 0.00 0.00 0.00 90 1013.7
20260507071219 1 114 0.0 0.0 0.00 0.00 0.00 90 1013.5
20260507070716 2 114 0.0 0.0 0.00 0.00 0.00 90 1013.7
20260507070213 2 114 0.0 0.0 0.00 0.00 0.00 88 1013.8
20260507065709 2 114 1.6 1.6 0.00 0.00 0.00 87 1013.8
20260507065206 2 98 0.0 0.0 0.00 0.00 0.00 88 1013.5
20260507064704 2 98 0.0 0.0 0.00 0.00 0.00 90 1013.9
20260507064202 2 98 0.0 0.0 0.00 0.00 0.00 90 1013.9
20260507063659 2 98 0.0 0.0 0.00 0.00 0.00 89 1013.8
20260507063156 2 98 0.0 0.0 0.00 0.00 0.00 89 1013.8
20260507062653 2 98 0.0 0.0 0.00 0.00 0.00 88 1013.8
20260507062150 2 98 0.0 0.0 0.00 0.00 0.00 89 1014.0
20260507061648 2 98 0.0 0.0 0.00 0.00 0.00 89 1014.0
20260507061146 2 98 0.0 0.0 0.00 0.00 0.00 89 1013.7
20260507060644 2 98 0.0 0.0 0.00 0.00 0.00 89 1014.1
20260507060140 2 98 0.0 0.0 0.00 0.00 0.00 89 1014.0
20260507055635 2 98 0.0 0.0 0.00 0.00 0.00 88 1014.1
20260507055132 3 98 0.0 0.0 0.00 0.00 0.00 87 1014.2
20260507054628 3 98 0.0 0.0 0.00 0.00 0.00 86 1014.1
20260507054125 3 98 0.0 0.0 0.00 0.00 0.00 86 1014.3
20260507053623 3 82 0.0 1.6 0.00 0.00 0.00 85 1014.1
20260507053121 3 117 0.0 1.6 0.00 0.00 0.00 84 1014.3
20260507052619 3 114 0.0 0.0 0.00 0.00 0.00 84 1014.3
20260507052115 3 131 1.6 3.2 0.00 0.00 0.00 84 1014.4
20260507051613 3 114 0.0 1.6 0.00 0.00 0.00 83 1014.4
20260507051109 3 105 1.6 3.2 0.00 0.00 0.00 82 1014.4
20260507050606 4 106 0.0 1.6 0.00 0.00 0.00 81 1014.4
20260507045559 4 74 0.0 0.0 0.00 0.00 0.00 79 1014.4
20260507045056 4 74 0.0 0.0 0.00 0.00 0.00 79 1014.5
20260507044553 4 74 0.0 0.0 0.00 0.00 0.00 78 1014.4
20260507044050 4 49 1.6 3.2 0.00 0.00 0.00 78 1014.8
20260507043545 4 29 0.0 3.2 0.00 0.00 0.00 78 1014.8
20260507043043 4 90 0.0 3.2 0.00 0.00 0.00 78 1014.7
20260507042539 5 35 0.0 1.6 0.00 0.00 0.00 78 1014.6
20260507042035 5 53 3.2 3.2 0.00 0.00 0.00 77 1014.6
20260507041532 5 83 0.0 0.0 0.00 0.00 0.00 77 1014.8
20260507041029 5 225 0.0 3.2 0.00 0.00 0.00 78 1014.7
20260507040525 5 285 0.0 3.2 0.00 0.00 0.00 77 1014.9
20260507040021 5 66 0.0 0.0 0.00 0.00 0.00 78 1014.7
20260507035517 5 259 0.0 3.2 0.00 1.85 1.85 76 1014.5
20260507035014 5 60 0.0 1.6 0.00 1.85 1.85 77 1014.5
20260507034511 5 63 0.0 1.6 0.00 1.85 1.85 77 1014.7
20260507034009 5 32 0.0 3.2 0.00 1.85 1.85 76 1014.7
20260507033507 5 98 0.0 1.6 0.00 1.85 1.85 77 1014.5
20260507033004 5 45 3.2 3.2 0.00 1.85 1.85 76 1014.4
20260507032500 5 90 0.0 3.2 0.00 1.85 1.85 75 1014.3
20260507031956 5 35 0.0 4.8 0.00 1.85 1.85 76 1014.5
20260507031453 5 97 0.0 3.2 0.00 1.85 1.85 76 1014.6
20260507030950 5 78 3.2 3.2 0.00 1.85 1.85 75 1014.5
20260507030447 5 0 3.2 4.8 0.00 1.85 1.85 75 1014.5
20260507025944 5 60 1.6 3.2 0.00 1.85 1.85 76 1014.5
20260507025441 5 166 3.2 4.8 0.00 1.85 1.85 75 1014.5
20260507024939 5 312 0.0 3.2 0.00 1.85 1.85 75 1014.4
20260507024436 5 90 0.0 0.0 0.00 1.85 1.85 75 1014.1
20260507023932 5 90 0.0 1.6 0.00 1.85 1.85 74 1014.0
20260507023429 5 66 0.0 1.6 0.00 1.85 1.85 74 1014.2
20260507022926 5 35 0.0 1.6 0.00 1.85 1.85 74 1014.1
20260507022423 5 66 0.0 3.2 0.00 1.85 1.85 75 1014.2
20260507021919 5 63 1.6 3.2 0.00 1.85 1.85 73 1014.1
20260507021414 5 23 1.6 1.6 0.00 1.85 1.85 74 1014.0
20260507020912 5 0 0.0 3.2 0.00 1.85 1.85 72 1014.3
20260507020409 6 23 0.0 4.8 0.00 1.85 1.85 75 1014.1
20260507015906 5 82 0.0 3.2 0.00 1.85 1.85 73 1014.1
20260507015404 6 20 0.0 1.6 0.00 1.85 1.85 74 1014.1
20260507014900 5 126 0.0 3.2 0.00 1.85 1.85 74 1014.3
20260507014356 6 123 1.6 3.2 0.00 1.85 1.85 75 1014.3
20260507013853 5 60 0.0 1.6 0.00 1.85 1.85 74 1014.2
20260507013350 6 66 0.0 1.6 0.00 1.85 1.85 73 1014.2
20260507012848 6 60 0.0 0.0 0.00 1.85 1.85 73 1014.2
20260507012343 6 54 0.0 3.2 0.00 1.85 1.85 72 1014.1
20260507011841 6 75 0.0 0.0 0.00 1.85 1.85 72 1014.2
20260507011337 6 60 0.0 3.2 0.00 1.85 1.85 71 1014.3
20260507010832 6 69 0.0 3.2 0.00 1.85 1.85 71 1014.2
20260507010328 6 23 0.0 3.2 0.00 1.85 1.85 71 1014.3
20260507005825 6 111 0.0 3.2 0.00 1.85 1.85 71 1014.0
20260507005322 6 66 1.6 4.8 0.00 1.85 1.85 72 1014.2
20260507004819 6 98 1.6 1.6 0.00 1.85 1.85 71 1014.3
20260507004316 6 123 0.0 1.6 0.00 1.85 1.85 70 1014.5
20260507003813 6 35 1.6 3.2 0.00 1.85 1.85 69 1014.3
20260507003308 6 337 0.0 1.6 0.00 1.85 1.85 69 1014.2
20260507002803 6 60 0.0 4.8 0.00 1.85 1.85 69 1014.2
20260507002300 6 180 0.0 4.8 0.00 1.85 1.85 67 1014.1
20260507001757 6 187 1.6 4.8 0.00 1.85 1.85 68 1014.3
20260507001254 6 138 4.8 4.8 0.00 1.85 1.85 67 1014.1
20260507000750 7 60 0.0 3.2 0.00 1.85 1.85 68 1014.3
20260507000246 7 270 3.2 9.7 0.00 1.85 1.85 65 1014.4
20260506235743 6 265 0.0 3.2 0.00 1.85 1.85 65 1014.3
20260506235238 7 17 4.8 6.4 0.00 1.85 1.85 65 1014.1
20260506234736 7 220 0.0 4.8 0.00 1.85 1.85 65 1014.0
20260506234233 7 102 1.6 4.8 0.00 1.85 1.85 63 1014.0
20260506233730 7 0 3.2 8.0 0.00 1.85 1.85 61 1013.5
20260506233227 7 183 0.0 6.4 0.00 1.85 1.85 61 1013.8
20260506232724 7 126 1.6 8.0 0.00 1.85 1.85 61 1013.3
20260506232218 7 94 3.2 4.8 0.00 1.85 1.85 63 1013.5
20260506231716 7 23 0.0 4.8 0.00 1.85 1.85 64 1013.5
20260506231214 7 157 0.0 9.7 0.00 1.85 1.85 60 1013.4
20260506230710 7 77 1.6 3.2 0.00 1.85 1.85 60 1013.3
20260506230208 7 46 6.4 6.4 0.00 1.85 1.85 60 1013.3
20260506225704 7 24 3.2 11.3 0.00 1.85 1.85 60 1013.4
20260506225201 7 90 1.6 9.7 0.00 1.85 1.85 59 1013.3
20260506224657 7 319 0.0 9.7 0.00 1.85 1.85 58 1013.4
20260506224154 8 74 4.8 4.8 0.00 1.85 1.85 62 1013.1
20260506223650 8 20 4.8 4.8 0.00 1.85 1.85 61 1012.9
20260506223146 8 64 4.8 4.8 0.00 1.85 1.85 61 1012.9
20260506222643 8 6 0.0 3.2 0.00 1.85 1.85 61 1012.9
20260506222139 8 327 0.0 8.0 0.00 1.85 1.85 59 1013.0
20260506221637 8 215 1.6 6.4 0.00 1.85 1.85 62 1012.8
20260506221135 8 117 1.6 4.8 0.00 1.85 1.85 61 1012.9
20260506220632 8 315 3.2 6.4 0.00 1.85 1.85 61 1012.6
20260506220127 8 354 1.6 8.0 0.00 1.85 1.85 60 1012.4
20260506215624 8 133 4.8 8.0 0.00 1.85 1.85 59 1012.7
20260506215119 8 165 4.8 6.4 0.00 1.85 1.85 60 1012.7
20260506214616 8 23 1.6 6.4 0.00 1.85 1.85 58 1012.5
20260506214114 8 332 3.2 11.3 0.00 1.85 1.85 60 1012.4